Stündliche Wetter Dzierzaniny

Heute, 14 Juni, Montag

Zeit Temperatur Niederschläge Wind Luftdruck Luftfeuchtigkeit
00:00 +8°C° 0.1 mm 4 m/S 728 mmHg 88%
01:00 +8°C° 0.1 mm 4 m/S 728 mmHg 91%
02:00 +7°C° 0 mm 4 m/S 728 mmHg 92%
03:00 +7°C° 0 mm 4 m/S 728 mmHg 93%
04:00 +8°C° 0 mm 3 m/S 728 mmHg 94%
05:00 +9°C° 0 mm 3 m/S 729 mmHg 91%
06:00 +10°C° 0 mm 4 m/S 729 mmHg 87%
07:00 +11°C° 0 mm 4 m/S 729 mmHg 84%
08:00 +12°C° 0.1 mm 4 m/S 729 mmHg 78%
09:00 +13°C° 0.1 mm 4 m/S 729 mmHg 73%
10:00 +14°C° 0.1 mm 4 m/S 729 mmHg 68%
11:00 +15°C° 0 mm 4 m/S 729 mmHg 63%
12:00 +17°C° 0 mm 4 m/S 729 mmHg 58%
13:00 +18°C° 0 mm 4 m/S 729 mmHg 54%
14:00 +18°C° 0 mm 4 m/S 728 mmHg 55%
15:00 +18°C° 0 mm 3 m/S 728 mmHg 57%
16:00 +18°C° 0 mm 3 m/S 728 mmHg 58%
17:00 +17°C° 0 mm 2 m/S 728 mmHg 64%
18:00 +16°C° 0 mm 2 m/S 728 mmHg 69%
19:00 +15°C° 0 mm 1 m/S 728 mmHg 75%
20:00 +14°C° 0 mm 1 m/S 728 mmHg 76%
21:00 +13°C° 0 mm 1 m/S 728 mmHg 78%
22:00 +12°C° 0 mm 1 m/S 728 mmHg 79%
23:00 +11°C° 0 mm 1 m/S 728 mmHg 82%

Morgen, 15 Juni, Dienstag

Zeit Temperatur Niederschläge Wind Luftdruck Luftfeuchtigkeit
00:00 +10°C° 0 mm 1 m/S 728 mmHg 84%
01:00 +10°C° 0 mm 1 m/S 728 mmHg 87%
02:00 +10°C° 0 mm 1 m/S 728 mmHg 87%
03:00 +9°C° 0 mm 1 m/S 728 mmHg 88%
04:00 +9°C° 0 mm 1 m/S 728 mmHg 88%
05:00 +11°C° 0 mm 1 m/S 728 mmHg 82%
06:00 +14°C° 0 mm 1 m/S 728 mmHg 76%
07:00 +16°C° 0 mm 1 m/S 728 mmHg 69%
08:00 +18°C° 0 mm 1 m/S 728 mmHg 65%
09:00 +19°C° 0 mm 1 m/S 728 mmHg 60%
10:00 +21°C° 0 mm 1 m/S 728 mmHg 56%
11:00 +21°C° 0 mm 1 m/S 728 mmHg 54%
12:00 +22°C° 0 mm 1 m/S 727 mmHg 52%
13:00 +21°C° 0 mm 2 m/S 727 mmHg 50%
14:00 +21°C° 0 mm 2 m/S 727 mmHg 51%
15:00 +21°C° 0 mm 2 m/S 727 mmHg 52%
16:00 +21°C° 0 mm 2 m/S 727 mmHg 54%
17:00 +21°C° 0 mm 1 m/S 727 mmHg 61%
18:00 +19°C° 0 mm 1 m/S 726 mmHg 68%
19:00 +16°C° 0 mm 0 m/S 726 mmHg 75%
20:00 +16°C° 0 mm 1 m/S 726 mmHg 76%
21:00 +15°C° 0 mm 1 m/S 727 mmHg 78%
22:00 +15°C° 0 mm 1 m/S 727 mmHg 79%
23:00 +14°C° 0 mm 1 m/S 727 mmHg 80%

übermorgen, 16 Juni, Mittwoch

Zeit Temperatur Niederschläge Wind Luftdruck Luftfeuchtigkeit
00:00 +14°C° 0 mm 1 m/S 727 mmHg 81%
01:00 +13°C° 0 mm 1 m/S 727 mmHg 82%
02:00 +13°C° 0 mm 1 m/S 727 mmHg 83%
03:00 +13°C° 0 mm 1 m/S 727 mmHg 84%
04:00 +13°C° 0 mm 1 m/S 727 mmHg 84%
05:00 +15°C° 0 mm 1 m/S 727 mmHg 80%
06:00 +16°C° 0 mm 1 m/S 727 mmHg 75%
07:00 +19°C° 0 mm 1 m/S 727 mmHg 71%
08:00 +20°C° 0.1 mm 1 m/S 728 mmHg 69%
09:00 +21°C° 0.1 mm 1 m/S 728 mmHg 67%
10:00 +21°C° 0.1 mm 2 m/S 728 mmHg 65%
11:00 +23°C° 0.1 mm 2 m/S 728 mmHg 64%
12:00 +23°C° 0.1 mm 2 m/S 728 mmHg 62%
13:00 +24°C° 0.1 mm 3 m/S 728 mmHg 61%
14:00 +24°C° 0.3 mm 3 m/S 728 mmHg 64%
15:00 +22°C° 0.3 mm 3 m/S 728 mmHg 67%
16:00 +22°C° 0.3 mm 4 m/S 728 mmHg 70%
17:00 +21°C° 0.2 mm 3 m/S 728 mmHg 77%
18:00 +19°C° 0.2 mm 3 m/S 728 mmHg 84%
19:00 +18°C° 0.2 mm 2 m/S 728 mmHg 90%
20:00 +17°C° 0 mm 2 m/S 728 mmHg 91%
21:00 +16°C° 0 mm 1 m/S 728 mmHg 93%
22:00 +15°C° 0 mm 1 m/S 728 mmHg 94%
23:00 +14°C° 0 mm 1 m/S 728 mmHg 94%

17 Juni, Donnerstag

Zeit Temperatur Niederschläge Wind Luftdruck Luftfeuchtigkeit
00:00 +14°C° 0 mm 1 m/S 728 mmHg 94%
01:00 +14°C° 0 mm 1 m/S 728 mmHg 94%
02:00 +13°C° 0 mm 1 m/S 728 mmHg 94%
03:00 +13°C° 0 mm 1 m/S 728 mmHg 94%
04:00 +13°C° 0 mm 1 m/S 728 mmHg 94%
05:00 +14°C° 0 mm 1 m/S 728 mmHg 90%
06:00 +16°C° 0 mm 1 m/S 728 mmHg 86%
07:00 +18°C° 0 mm 2 m/S 728 mmHg 83%
08:00 +19°C° 0 mm 2 m/S 728 mmHg 76%
09:00 +20°C° 0 mm 3 m/S 729 mmHg 69%
10:00 +22°C° 0 mm 4 m/S 729 mmHg 63%
11:00 +22°C° 0 mm 4 m/S 729 mmHg 60%
12:00 +23°C° 0 mm 4 m/S 728 mmHg 57%
13:00 +25°C° 0 mm 4 m/S 728 mmHg 54%
14:00 +23°C° 0 mm 4 m/S 728 mmHg 56%
15:00 +23°C° 0 mm 4 m/S 728 mmHg 58%
16:00 +23°C° 0 mm 4 m/S 728 mmHg 61%
17:00 +22°C° 0 mm 3 m/S 728 mmHg 68%
18:00 +20°C° 0 mm 3 m/S 727 mmHg 75%
19:00 +19°C° 0 mm 2 m/S 727 mmHg 83%
20:00 +18°C° 0 mm 2 m/S 727 mmHg 86%
21:00 +17°C° 0 mm 2 m/S 728 mmHg 89%
22:00 +16°C° 0 mm 2 m/S 728 mmHg 93%
23:00 +15°C° 0 mm 1 m/S 728 mmHg 93%

18 Juni, Freitag

Zeit Temperatur Niederschläge Wind Luftdruck Luftfeuchtigkeit
00:00 +15°C° 0 mm 1 m/S 727 mmHg 93%
01:00 +15°C° 0 mm 1 m/S 727 mmHg 93%
02:00 +15°C° 0 mm 1 m/S 727 mmHg 93%
03:00 +15°C° 0 mm 1 m/S 727 mmHg 94%
04:00 +15°C° 0 mm 1 m/S 727 mmHg 94%
05:00 +18°C° 0 mm 1 m/S 727 mmHg 90%
06:00 +18°C° 0 mm 2 m/S 727 mmHg 85%
07:00 +20°C° 0 mm 2 m/S 727 mmHg 80%
08:00 +21°C° 0 mm 3 m/S 727 mmHg 76%
09:00 +22°C° 0 mm 4 m/S 727 mmHg 72%
10:00 +25°C° 0 mm 4 m/S 727 mmHg 68%
11:00 +25°C° 0.1 mm 5 m/S 727 mmHg 67%
12:00 +25°C° 0.1 mm 5 m/S 727 mmHg 67%
13:00 +26°C° 0.1 mm 5 m/S 727 mmHg 66%
14:00 +25°C° 0.3 mm 5 m/S 727 mmHg 70%
15:00 +25°C° 0.3 mm 5 m/S 727 mmHg 74%
16:00 +25°C° 0.3 mm 4 m/S 727 mmHg 78%
17:00 +23°C° 0.2 mm 4 m/S 727 mmHg 81%
18:00 +22°C° 0.2 mm 4 m/S 727 mmHg 85%
19:00 +21°C° 0.2 mm 3 m/S 727 mmHg 89%
20:00 +20°C° 0 mm 3 m/S 727 mmHg 91%
21:00 +18°C° 0 mm 2 m/S 727 mmHg 94%
22:00 +17°C° 0 mm 2 m/S 727 mmHg 96%
23:00 +18°C° 0 mm 1 m/S 727 mmHg 96%

19 Juni, Samstag

Zeit Temperatur Niederschläge Wind Luftdruck Luftfeuchtigkeit
00:00 +18°C° 0 mm 1 m/S 727 mmHg 97%
01:00 +16°C° 0 mm 1 m/S 727 mmHg 97%
02:00 +16°C° 0 mm 1 m/S 727 mmHg 97%
03:00 +16°C° 0 mm 1 m/S 727 mmHg 97%
04:00 +16°C° 0 mm 1 m/S 727 mmHg 98%
05:00 +16°C° 0 mm 2 m/S 727 mmHg 95%
06:00 +17°C° 0 mm 2 m/S 727 mmHg 92%
07:00 +18°C° 0 mm 3 m/S 727 mmHg 89%
08:00 +19°C° 0 mm 3 m/S 728 mmHg 86%
09:00 +19°C° 0 mm 3 m/S 728 mmHg 83%
10:00 +20°C° 0 mm 3 m/S 728 mmHg 80%
11:00 +21°C° 0 mm 4 m/S 728 mmHg 75%
12:00 +23°C° 0 mm 4 m/S 728 mmHg 70%
13:00 +25°C° 0 mm 5 m/S 728 mmHg 65%
14:00 +25°C° 0.1 mm 5 m/S 727 mmHg 67%
15:00 +23°C° 0.1 mm 5 m/S 727 mmHg 69%
16:00 +23°C° 0.1 mm 5 m/S 727 mmHg 71%
17:00 +22°C° 0 mm 5 m/S 727 mmHg 76%
18:00 +21°C° 0 mm 4 m/S 727 mmHg 80%
19:00 +20°C° 0 mm 4 m/S 727 mmHg 85%
20:00 +19°C° 0 mm 3 m/S 727 mmHg 88%
21:00 +18°C° 0 mm 2 m/S 727 mmHg 92%
22:00 +16°C° 0 mm 1 m/S 727 mmHg 96%
23:00 +16°C° 0 mm 1 m/S 727 mmHg 96%
Mehr zeigen

Wir brauchen deine Erlaubnis

Meteoprog und unser Service Anbieter werden persönliche Daten aufbewahren, so wie Cookies, Geräte Bezeichnung oder ähnliche Technologien von deinem Gerät und Prozess, so wie Persönliche Daten Inhalte und Werbungen, genauso wie social Media und den Verkehr zu analysieren.

  • Aufbewahrung und/oder Zugang zu deiner Geräte Informationen.

    Cookies, Geräte Bezeichnung oder andere Informationen, können aufbewahrt oder Zugang zu deinem Gerät erhalten, für den Grund, der oben angegeben wird.

  • Personalisierte Werbung und Inhalte, Messungen, Einblick in das Publikum und Produkt Entwicklung.

    Werbungen und Inhalte können personalisiert werden, basierend auf ein Profil. Mehr Daten können besser personalisierte Werbungen und Inhalte hinzufügen. Werbung und Inhalte können gezeigt und gemessen werden. Einblicke über das Publikum, welche die Werbung gesehen haben und den Inhalt, können abgeleitet werden. So wie Daten können genutzt werden, um es zu verbessern oder die Benutzer Erfahrung zu verbessern das System und die Software.

Wenn du “Ich stimme zu” klickst, erlaubst du uns, die Cookies zu benutzen die Geräte Bezeichnung, den Web oder ähnliche Technologien zu benutzen. Deine Settings, können in deinem Gerät bei deinem Browser geändert werden.

Für den bestimmten Zweck, berechtigten Interessen beruhen darauf, mehr als auf den Inhalt. Du kannst mehr darüber in unseren Privaten und Cookie Politik lesen.